STARLINK-11448 [DTC] (63005 NORAD) Tracking and Keplerian Element Data

This shows tracking and keplerian element data for the satellite.

Feedback or suggestion? Click here.




ElementValue
Catalog63005
NameSTARLINK-11448 [DTC]
Epoch Orbit4972
Epoch Day354.18402662
Epoch Year2025
RAAN314.2166
Inclination42.9994
Eccentricity0.0001323
Argument of Perigee254.8754
Mean Anonmoly105.1968
Mean Motion15.70917703
Decay Rate0.00170701
L11 63005U 25032A 25354.18402662 .00170701 00000+0 13024-2 0 9991
L22 63005 42.9994 314.2166 0001323 254.8754 105.1968 15.70917703 49722



Live tracking and technical data element details for STARLINK-11448 [DTC] (NORAD 63005). STARLINK-11448 [DTC] can be tracked NOW for your location showing map with azimuth and elevation plus other details from your city location.







IsCatalogInMostPopularTable: catalog: 63005, numindb: 2
Update: records affected: 1



GetName: 63005 STARLINK-11448 [DTC]

Hit Count: updated at: Tue, 10 Feb 2026 02:17:01 GMT